Current weather by "City, St" or "zip code"  
 

Current Conditions: Donalsonville Municipal Airport, GA

Fair


73.0 F

Last Updated on Aug 10 2022, 12:35 am EDT
Humidity: 95%
Wind Speed: S 4.6 mph
Barometer 30.15 in
Dewpoint: 71.4 F
Visibility: 10.00 mi
Precip: --
Heat Index: NA
Wind Chill: NA
Current conditions at:

Donalsonville Municipal Airport, GA (K17J)

Lat: 31.00697 Lon: 84.87761

Local Radar Image active severe weather and emergency alerts image image weather storm and storm spotter reports image weather observation monitoring service image
Local
Radar
Active
Alerts
Storm Reports Obs
Monitoring

Sign-up For Email & Text Message Weather Alert Notification Services



Advertise Here

Observation History for Donalsonville Municipal Airport, GA


Time Wind
(mph)
Vis
(mi)
Weather Precip (in) Temperature (F) Relative
Humidity
Wind
Chill
(F)
Heat
Index
(F)
Pressure
Air Dwpt altimeter
(in)
sea level
(mb)
Rmks
12:35 am EDT S 4.6 10.00 Fair -- 73.0 71.4 95% NA NA 30.15 M
12:15 am EDT S 8.1 10.00 Fair -- 73.0 71.8 95% NA NA 30.14 M
10:15 pm EDT E 4.6 10.00 Fair -- 74.0 72.3 94% NA NA 30.13 M
9:55 pm EDT E 3.5 10.00 Fair -- 74.0 73.6 97% NA NA 30.13 M
9:35 pm EDT N 0.0 10.00 Fair -- 74.0 73.2 96% NA NA 30.14 M
8:15 pm EDT SE 4.6 10.00 Light Rain 00.01 75.0 73.2 95% NA NA 30.14 M
7:35 pm EDT SE 3.5 10.00 Light Rain 00.02 75.0 72.9 94% NA NA 30.12 M
7:15 pm EDT SE 4.6 10.00 Light Rain -- 74.0 73.2 96% NA NA 30.11 M
6:55 pm EDT N 0.0 10.00 Light Rain -- 75.0 72.1 92% NA NA 30.10 M
6:35 pm EDT E 3.5 10.00 Partly Cloudy -- 75.0 70.9 88% NA NA 30.11 M
6:15 pm EDT N 0.0 10.00 Fair -- 74.0 70.2 86% NA NA 30.13 M
5:55 pm EDT N 0.0 10.00 Thunderstorm in Vicinity -- 74.0 70.5 89% NA NA 30.12 M
5:35 pm EDT W 8.1 10.00 Thunderstorm in Vicinity -- 75.0 70.3 85% NA NA 30.11 M
5:15 pm EDT W 10.4 G 21.9 7.00 Thunderstorm -- 75.0 72.0 89% NA NA 30.11 M
4:55 pm EDT W 12.7 G 24.2 10.00 Thunderstorm Light Rain -- 78.0 73.2 87% NA NA 30.11 M
4:35 pm EDT N 0.0 3.00 Thunderstorm Heavy Rain in Vicinity 00.16 77.0 71.4 82% NA NA 30.08 M
3:55 pm EDT SE 4.6 10.00 Fair -- 91.0 68.0 48% NA 95 30.07 M
3:35 pm EDT N 5.8 10.00 Partly Cloudy -- 90.0 70.0 52% NA 96 30.08 M
2:55 pm EDT E 3.5 10.00 Partly Cloudy -- 89.0 70.3 54% NA 94 30.09 M
1:55 pm EDT S 4.6 10.00 Fair -- 89.0 70.2 55% NA 95 30.13 M
1:35 pm EDT SE 6.9 10.00 Partly Cloudy -- 88.0 70.2 55% NA 93 30.14 M
1:15 pm EDT S 6.9 10.00 Partly Cloudy -- 88.0 71.2 58% NA 94 30.15 M
12:55 pm EDT SE 8.1 10.00 Partly Cloudy -- 88.0 71.4 59% NA 95 30.16 M
12:15 pm EDT S 5.8 7.00 Partly Cloudy with Haze -- 86.0 70.7 60% NA 91 30.17 M

Regional Weather Observation


Blakely, Early County Airport, GA (KBIJ)

Fair
72.0 F

Dothan, Dothan Regional Airport, AL (KDHN)

A Few Clouds
75.0 F

Hanchey AHP / Ozark, AL (KHEY)

Overcast
77.0 F

Cairns Army Air Field / Ozark, AL (KOZR)

A Few Clouds
75.0 F

Fort Rucker, Lowe Army Heliport, AL (KLOR)

Overcast
75.0 F

Marianna Municipal Airport, FL (KMAI)

Fair
74.0 F

Advertise Here


Advertise Here